GFSFLT2_sfc_rhum_081.txt.gz
RH
95 92 80 89 88 88 87 88 88 86 84 83 81 82 82 82 79 76 78 84 83 81 80 80 78 78 78 80 81 73 49 47
97 98 97 95 88 89 91 90 87 91 86 83 83 82 84 80 78 82 82 85 84 82 81 81 81 81 82 82 82 74 50 47
98 97 95 94 92 93 89 90 88 88 90 88 85 76 74 70 74 86 85 85 82 82 82 82 83 82 82 82 73 50 50 47
98 94 95 94 91 86 84 86 85 85 96 88 85 78 70 66 74 84 85 83 83 82 82 83 69 55 59 70 50 54 50 49
96 95 94 90 84 88 88 94 95 98 96 92 86 74 69 65 70 70 74 77 62 65 67 52 56 52 52 54 58 57 51 48
95 94 94 96 96 89 94 96 97 98 96 86 77 68 68 66 65 68 66 65 66 64 58 62 61 55 56 60 58 53 50 49
96 92 89 85 87 94 97 98 97 96 93 76 69 67 70 65 65 56 60 61 63 61 59 60 58 56 55 57 59 58 58 49
94 91 89 83 90 96 98 98 96 97 90 74 73 67 67 61 59 57 57 50 53 58 58 56 52 50 55 56 58 56 58 59
94 90 87 83 88 97 96 96 95 96 86 80 70 64 60 58 56 62 59 49 57 51 55 54 52 48 52 54 55 59 58 62
91 86 86 86 86 95 97 94 95 94 83 75 76 66 58 56 53 59 62 60 51 48 48 50 48 47 50 49 50 56 60 62
93 91 86 86 90 93 96 98 96 94 79 72 75 65 62 54 51 62 67 65 59 49 48 45 44 42 40 43 45 48 56 55
93 92 90 89 95 97 98 97 98 94 72 64 67 62 59 56 54 73 72 68 56 52 51 53 46 41 29 39 48 48 46 44
94 96 93 94 97 98 98 98 97 96 86 76 72 64 62 62 58 62 70 60 62 67 58 59 53 51 49 45 45 49 50 45
92 91 90 89 92 96 92 96 97 92 94 86 72 69 66 60 66 60 64 59 68 66 61 56 54 53 48 48 50 47 46 44
92 88 86 87 92 96 95 97 97 95 92 84 72 71 63 62 66 62 66 65 64 68 65 64 56 58 58 52 62 60 52 52
84 86 87 85 92 92 92 81 88 81 81 69 60 71 67 62 64 67 70 68 69 70 66 65 65 67 68 70 70 64 60 63
86 83 82 80 81 84 86 85 77 68 70 70 75 75 70 64 67 72 74 71 73 76 77 74 74 71 70 75 73 75 76 76
81 82 78 75 73 75 81 78 74 76 74 69 73 72 75 76 71 73 75 76 79 80 78 77 77 75 72 74 69 78 78 79
84 82 81 78 76 75 74 72 73 71 70 68 71 74 76 77 79 81 81 80 80 78 80 81 80 80 77 78 80 86 87 84
83 82 79 78 78 75 72 70 68 66 68 66 70 68 68 71 76 76 78 76 79 80 82 82 82 86 82 83 85 94 94 86

GFSFLT2_sfc_rhum_084.txt.gz
RH
92 86 78 88 90 89 92 92 92 93 94 91 82 84 82 83 83 82 83 83 82 80 82 81 78 78 78 80 76 71 33 34
92 88 84 81 84 95 88 91 88 87 92 91 89 86 84 82 82 86 86 85 83 82 83 81 80 82 81 82 77 70 33 33
93 94 82 87 80 90 92 89 90 90 84 88 88 77 72 70 71 87 86 85 83 84 83 83 84 83 82 80 75 33 34 32
95 96 91 83 76 85 88 91 91 91 92 87 87 86 73 60 77 88 86 84 84 84 84 84 68 43 50 68 33 37 34 35
93 96 94 94 91 90 79 83 92 92 94 92 87 92 77 70 70 70 73 68 51 58 62 40 40 37 40 36 39 39 34 35
87 93 92 92 88 92 86 72 91 92 98 98 92 89 75 68 58 62 62 49 52 48 42 43 43 39 40 42 42 35 34 36
83 87 90 94 93 86 85 91 97 96 96 94 92 91 77 66 63 62 57 52 52 47 44 44 43 40 40 42 41 39 41 35
86 86 86 75 86 93 93 98 97 95 95 92 90 91 71 60 56 60 58 59 51 46 46 43 37 36 39 41 41 40 40 41
86 86 83 78 81 94 95 98 96 94 95 88 78 70 63 57 50 53 55 56 58 48 47 41 36 32 37 39 39 42 40 43
83 82 83 80 92 94 94 97 94 94 90 82 65 62 55 50 49 57 50 51 54 51 45 39 36 33 36 36 36 40 44 45
86 84 85 84 94 93 93 94 94 93 82 65 57 56 55 52 51 52 49 49 49 41 38 38 39 34 33 34 35 36 43 38
86 87 87 84 97 94 95 93 95 93 69 55 53 49 56 49 44 51 40 38 40 37 41 37 35 32 23 29 33 33 35 40
91 92 85 84 97 97 96 94 93 94 76 70 67 45 46 45 43 47 41 42 45 49 43 46 39 38 32 34 38 40 41 35
92 90 91 90 85 92 91 94 90 88 80 72 66 66 52 44 48 50 50 53 58 55 53 47 42 42 45 46 48 42 38 38
89 86 86 86 88 95 96 91 95 94 84 76 67 62 50 47 52 52 60 50 53 57 55 52 48 46 48 46 54 56 45 39
80 84 81 80 84 91 94 86 86 81 74 74 71 62 56 44 47 51 55 50 52 56 50 53 53 52 49 44 52 51 49 63
75 82 81 80 84 88 92 91 77 74 72 72 70 70 60 50 50 54 55 50 55 56 58 61 53 56 51 49 54 52 55 56
73 81 82 83 81 85 86 84 83 83 76 72 55 50 50 55 48 54 56 54 57 59 62 63 63 59 57 57 56 55 55 58
72 74 79 82 83 80 76 76 79 82 66 64 58 46 43 53 57 56 55 58 59 62 66 67 66 65 66 60 59 60 58 69
70 72 74 76 78 74 72 67 72 70 69 66 52 50 50 55 60 62 63 62 63 65 65 65 67 69 71 68 66 65 70 70

GFSFLT2_sfc_rhum_087.txt.gz
RH
69 80 82 87 87 88 86 89 89 89 89 78 73 84 87 80 80 80 82 83 83 82 84 84 82 80 78 75 73 71 30 34
67 75 82 81 75 91 90 87 87 82 85 86 89 88 88 82 82 84 85 84 84 82 84 84 83 82 80 75 72 71 32 32
74 71 77 79 75 77 88 88 90 83 92 94 97 94 76 70 75 86 85 84 84 83 84 85 85 82 79 75 79 30 30 31
71 81 74 77 68 72 77 75 82 82 89 90 97 96 83 68 83 88 85 85 85 85 85 84 63 46 47 67 39 32 30 35
70 88 94 79 80 78 77 89 91 93 92 94 97 96 93 83 90 75 75 75 60 61 61 40 40 40 42 40 36 35 32 37
72 88 95 93 92 90 79 91 93 96 95 95 98 97 94 87 73 68 61 56 57 52 42 45 42 38 39 40 39 32 33 41
74 81 90 90 94 96 95 87 90 94 96 96 97 96 94 87 70 58 52 51 51 48 42 40 40 39 38 40 38 36 38 39
72 75 80 80 90 96 91 90 93 93 96 97 94 96 92 84 72 60 53 49 50 47 46 41 37 37 40 39 37 38 37 43
76 75 78 75 85 91 91 92 97 95 95 95 90 89 90 89 82 69 62 55 56 56 51 40 34 33 38 38 37 39 37 40
70 75 78 80 85 92 94 97 98 96 94 92 95 86 83 85 76 69 65 61 55 57 53 45 40 35 39 38 37 38 41 42
73 82 83 87 93 93 96 95 96 94 93 92 86 81 80 72 62 62 67 60 60 54 52 56 48 37 35 35 37 37 41 36
78 85 86 87 95 95 94 94 94 92 89 82 77 73 71 62 59 68 61 58 58 51 54 46 44 38 26 32 36 35 38 39
80 86 91 92 97 97 94 94 90 87 81 82 79 64 56 58 56 56 51 47 48 54 50 53 47 39 32 34 36 38 39 37
79 81 83 88 91 91 90 90 85 82 77 62 50 56 52 49 52 50 49 46 56 57 56 49 41 45 40 40 47 43 39 39
71 79 74 81 91 93 90 87 91 89 86 68 56 52 47 47 56 52 59 62 65 64 57 57 50 47 48 47 59 64 58 42
65 71 77 76 88 92 89 85 84 75 71 56 65 63 58 53 63 64 66 61 60 62 52 55 54 52 49 44 52 53 60 68
68 74 76 75 81 90 92 84 74 71 68 64 62 69 65 56 57 62 58 53 62 63 58 58 51 51 49 52 55 52 59 58
70 76 79 78 82 89 90 89 79 81 74 73 70 71 75 66 52 55 54 58 59 58 60 60 64 61 57 56 52 53 51 57
73 74 80 79 83 81 86 86 80 78 73 74 71 72 72 70 62 59 57 59 57 60 66 68 67 65 66 59 60 55 52 57
66 69 72 76 81 79 76 80 71 70 75 69 66 65 65 62 64 60 56 57 59 61 62 66 70 72 72 68 63 62 60 60

GFSFLT2_sfc_rhum_090.txt.gz
RH
82 81 86 86 91 92 91 89 91 85 84 87 88 93 90 92 84 84 85 87 86 84 85 84 82 80 72 74 72 72 41 51
74 81 90 87 91 89 90 92 90 86 85 87 88 92 84 88 87 84 86 87 86 84 86 85 83 79 75 73 71 76 44 49
71 70 88 89 86 87 90 91 91 92 91 90 94 93 83 88 88 85 86 86 86 85 86 87 84 78 72 75 78 45 44 56
66 80 81 86 77 89 83 87 91 93 94 98 97 99 95 90 82 87 87 87 86 87 86 83 69 65 70 73 61 45 50 59
66 80 87 88 90 90 94 94 95 96 96 98 96 99 96 92 94 90 85 85 82 84 79 60 59 56 61 63 60 44 54 58
65 84 87 89 84 96 93 96 95 97 96 96 96 98 98 99 94 85 78 73 76 72 64 57 61 57 61 62 54 48 57 63
74 83 86 91 93 93 96 96 96 94 96 95 96 97 97 97 91 72 67 65 62 58 60 52 56 55 58 54 54 50 58 62
78 83 88 86 88 93 95 96 96 97 96 95 94 96 96 96 92 64 62 62 56 56 52 56 49 56 59 54 53 52 55 62
81 84 80 81 88 90 93 94 99 98 97 94 94 93 94 93 85 63 64 63 63 69 63 58 58 52 58 57 58 56 54 60
74 72 73 82 92 91 92 97 98 97 98 98 94 92 90 91 84 81 76 73 72 68 66 62 58 60 62 60 56 56 58 57
82 78 77 86 93 95 98 97 98 96 96 96 92 90 92 86 87 87 84 77 78 66 68 65 61 60 56 60 59 60 60 49
83 83 85 93 97 97 97 97 98 97 96 93 90 86 84 84 88 88 83 77 76 70 67 68 62 59 37 46 60 64 60 65
84 82 91 96 96 97 96 97 96 97 94 87 87 87 79 82 87 85 74 74 69 68 71 67 61 64 63 64 60 59 66 64
86 85 88 92 90 90 88 88 86 88 92 91 83 85 80 81 84 73 70 68 68 70 68 69 64 64 61 61 70 62 61 61
85 77 79 90 90 91 91 88 88 88 86 87 84 84 83 79 75 64 73 66 66 74 73 66 66 63 65 69 80 86 75 66
78 79 79 88 88 88 86 83 82 78 77 68 62 67 65 61 62 62 61 60 69 70 69 69 69 64 72 73 83 80 88 86
78 80 78 87 85 84 83 79 75 83 78 72 62 62 60 61 64 68 75 69 72 77 78 81 79 87 81 79 77 80 82 89
76 81 79 86 86 82 81 82 80 85 76 71 69 64 68 70 66 75 77 69 76 74 86 79 80 83 80 80 79 82 82 85
73 78 80 83 87 87 78 78 79 79 73 64 64 66 78 81 75 74 71 73 71 76 79 84 83 88 84 83 81 79 76 78
67 73 77 81 85 85 81 74 79 77 66 64 66 65 67 73 76 73 67 67 78 79 84 86 87 88 88 88 83 84 81 81

GFSFLT2_sfc_rhum_096.txt.gz
RH
98 97 92 93 94 93 97 96 91 91 90 90 88 88 87 85 86 94 84 85 86 87 88 87 83 81 78 78 79 75 65 69
97 95 92 89 97 95 97 96 93 92 93 92 88 89 89 86 91 91 85 86 87 88 89 86 81 79 82 78 78 74 66 74
97 97 95 96 98 95 94 92 90 89 91 89 91 96 96 86 85 95 84 86 87 88 87 85 81 82 79 78 71 63 65 71
96 98 96 97 95 97 96 95 96 96 94 96 98 98 97 95 95 93 83 87 88 87 85 84 75 73 70 72 65 64 64 66
94 96 97 98 99 99 100 99 99 99 97 97 98 98 99 97 98 95 93 89 87 85 84 76 72 69 64 67 68 66 66 66
96 96 97 98 98 98 98 98 98 98 98 97 98 99 99 99 99 97 93 88 94 91 88 78 71 66 63 69 71 68 69 67
95 96 97 98 98 99 98 99 99 97 98 97 98 99 99 97 98 97 91 90 86 90 82 73 72 70 65 68 71 71 73 71
97 96 95 97 98 98 99 98 99 98 97 97 97 97 98 98 96 95 91 82 78 76 75 74 73 70 66 68 71 70 71 78
96 97 96 95 98 98 97 98 98 98 97 97 96 96 95 97 97 95 84 75 73 80 73 71 72 67 67 72 72 72 75 78
96 92 97 98 98 98 99 99 99 97 96 96 97 94 93 94 93 88 74 67 70 73 66 72 74 69 70 72 75 72 74 77
97 96 96 97 97 97 98 99 98 98 97 96 95 95 94 92 88 73 70 63 73 67 65 64 76 74 69 72 76 77 77 71
93 93 97 98 98 99 99 99 99 99 98 96 93 95 92 92 87 74 58 66 75 66 63 69 70 68 57 69 73 79 76 78
94 96 97 98 98 99 99 99 99 99 99 98 96 92 92 90 88 81 53 66 68 66 63 64 72 70 71 75 80 78 77 77
95 96 95 95 94 96 96 97 97 98 98 98 97 97 96 90 86 82 58 70 67 64 62 75 71 66 64 74 80 75 76 78
95 96 95 93 94 95 97 96 98 98 99 98 98 96 94 90 84 82 70 67 65 62 58 59 63 75 60 72 83 87 77 73
95 95 91 90 93 93 95 95 96 92 93 96 98 95 94 90 87 80 74 67 67 64 62 61 58 63 76 81 84 87 83 83
95 95 85 89 92 91 91 91 86 90 91 96 97 98 94 87 85 82 79 73 74 74 78 77 72 83 76 82 84 90 92 87
96 94 85 91 88 87 89 89 90 91 90 93 95 97 97 92 87 85 79 80 84 77 85 78 84 80 78 82 78 80 86 89
95 93 86 91 90 86 90 87 90 88 88 88 90 94 96 97 96 95 92 84 87 82 84 86 86 88 86 78 85 77 84 87
93 95 85 88 91 84 82 87 83 81 80 81 80 83 88 90 89 88 84 81 82 88 85 83 91 87 88 90 92 91 86 87

GFSFLT2_sfc_rhum_102.txt.gz
RH
97 97 97 98 97 96 97 94 93 91 90 92 93 92 91 90 89 86 83 83 86 88 89 89 89 87 87 88 88 86 84 83
97 97 98 99 98 97 98 94 93 93 94 93 92 90 89 91 90 86 86 85 85 83 90 89 88 87 87 87 87 87 90 89
99 99 98 98 98 98 98 94 94 93 92 92 93 93 94 90 90 89 86 81 84 81 90 88 88 87 86 85 83 86 88 88
99 99 98 97 98 96 98 97 95 94 94 95 97 98 98 95 92 90 88 81 81 85 87 87 83 80 82 80 82 84 86 88
99 98 97 97 98 98 99 96 98 97 95 98 98 98 98 98 99 97 95 82 87 87 84 75 81 82 81 84 82 84 85 83
98 98 98 98 97 97 98 97 98 99 98 97 98 98 99 99 98 96 96 92 89 95 82 77 83 80 81 81 80 80 83 81
97 98 97 98 99 97 95 97 99 98 98 97 97 97 98 98 97 98 98 97 94 89 87 78 79 78 76 74 75 79 81 80
95 98 97 98 98 97 95 94 98 96 98 97 96 98 98 98 99 98 99 98 97 87 81 75 75 76 80 80 81 82 80 83
95 96 98 97 95 98 96 96 97 98 97 96 96 96 98 99 98 98 97 98 95 88 83 79 77 76 82 84 83 82 81 84
92 92 98 99 97 98 96 96 97 97 97 96 94 95 95 98 99 99 96 98 95 87 82 81 79 82 86 88 84 84 88 90
96 95 97 99 99 98 99 96 97 96 96 96 94 95 96 97 98 98 98 97 95 91 84 84 83 85 85 93 92 92 89 83
94 95 96 98 99 99 99 99 98 96 96 94 96 96 96 97 98 98 97 96 95 93 88 83 79 82 74 89 96 94 92 92
96 95 97 97 98 98 99 98 96 96 95 96 96 97 96 96 96 98 97 94 89 85 90 86 85 78 88 95 95 93 91 91
93 94 96 94 91 95 94 93 96 98 99 99 96 98 96 95 94 95 96 95 90 84 80 84 82 78 80 91 96 89 88 88
89 95 91 91 90 94 98 98 99 99 99 99 99 95 96 95 94 94 92 90 89 81 78 74 82 80 72 86 97 96 95 88
87 94 92 90 91 94 93 97 97 98 95 98 99 99 98 94 94 95 93 83 80 70 66 68 74 79 76 80 83 89 94 94
90 88 89 88 91 91 90 88 85 96 98 98 98 98 99 94 94 95 90 81 71 65 69 74 70 75 74 88 89 92 86 82
85 89 90 88 89 89 94 96 94 97 98 98 98 98 97 98 95 91 87 84 79 66 76 74 80 73 78 83 82 80 86 86
86 88 92 92 97 95 97 96 93 92 92 94 98 98 99 98 97 95 86 86 86 82 82 85 81 81 79 80 84 78 85 89
89 88 89 92 93 92 97 96 93 93 93 91 94 95 97 98 95 91 88 89 84 87 88 90 89 86 85 82 85 84 83 86

GFSFLT2_sfc_rhum_105.txt.gz
RH
88 87 87 97 96 94 95 93 96 95 94 93 90 90 89 88 86 85 83 83 81 91 92 90 91 90 90 90 90 84 58 56
83 90 90 87 85 96 97 95 95 94 94 94 95 94 91 87 91 88 84 86 82 86 92 91 90 89 89 89 89 85 57 56
82 82 86 90 87 86 97 96 94 94 92 93 94 79 77 79 81 92 85 86 89 91 93 92 91 91 90 90 84 59 59 56
80 82 83 85 81 84 93 91 91 91 88 82 85 85 81 76 80 88 87 88 91 90 94 94 91 92 83 80 58 62 59 57
89 90 85 85 85 81 95 98 97 96 86 92 91 95 93 86 86 83 86 90 80 90 91 88 84 86 72 63 62 63 58 55
85 90 89 87 82 84 84 97 98 96 96 91 88 94 96 95 95 92 85 78 77 92 89 83 84 73 69 66 63 57 56 52
86 89 86 84 91 92 90 95 96 95 89 94 89 87 96 89 94 94 83 83 86 95 86 86 86 67 65 64 63 60 59 51
76 82 84 79 88 92 92 94 94 94 92 92 91 91 89 96 95 93 95 96 93 91 93 93 90 62 67 63 61 59 59 58
74 79 84 82 84 91 88 92 92 94 92 91 87 87 90 93 93 94 95 99 96 93 94 94 93 64 66 62 60 61 58 58
65 70 82 87 86 91 89 91 92 91 91 91 87 85 86 85 93 97 98 97 97 95 96 95 92 71 72 62 58 58 59 60
65 74 80 88 87 91 90 94 94 92 91 92 87 88 83 83 93 97 98 97 97 96 96 93 88 79 70 63 61 58 60 58
65 74 79 88 93 94 95 96 96 94 94 93 88 92 88 90 96 98 98 98 96 95 94 93 86 82 61 64 61 60 60 61
72 78 82 89 96 96 97 97 96 96 94 91 92 92 92 94 96 98 97 96 95 92 93 93 92 72 73 77 72 70 69 62
75 76 82 80 82 89 87 88 90 91 93 92 90 92 92 94 96 98 96 97 95 93 92 95 92 80 72 72 94 87 70 66
75 74 81 77 79 84 83 89 90 95 96 95 93 91 95 94 95 95 94 93 95 94 93 89 93 88 74 62 85 84 76 68
74 75 82 78 81 84 83 77 82 84 87 87 96 96 96 93 94 94 93 93 94 94 94 92 90 91 79 62 70 79 71 86
74 82 81 81 82 80 81 84 77 78 79 86 96 97 97 95 93 95 95 92 93 93 95 94 89 86 79 75 77 80 73 65
76 86 84 85 81 84 88 87 78 75 78 85 89 96 98 94 92 91 93 92 92 91 90 89 85 76 71 68 73 71 76 72
77 83 86 86 84 88 87 85 80 79 84 88 95 95 95 98 96 96 94 89 83 78 85 80 77 75 76 67 70 66 75 75
77 79 83 83 87 88 86 79 74 72 77 80 84 78 88 86 95 93 89 90 87 83 84 84 84 81 80 71 70 68 68 69

GFSFLT2_sfc_rhum_108.txt.gz
RH
69 73 79 96 94 95 96 95 95 94 93 94 93 92 86 83 86 86 80 84 83 91 93 92 92 92 91 90 87 80 47 52
64 66 70 72 74 95 96 95 95 95 95 94 94 94 89 85 89 86 84 86 86 89 95 94 94 92 91 90 88 85 43 50
58 61 68 71 69 73 94 95 95 96 91 94 94 67 63 69 73 82 84 82 86 87 96 94 95 95 94 92 86 47 47 47
48 56 58 66 55 62 69 73 75 72 69 67 67 62 60 53 67 91 89 88 89 89 95 96 92 94 97 94 62 53 47 49
48 59 61 64 57 51 71 84 67 76 70 70 68 70 70 68 67 58 59 78 56 79 91 86 88 95 97 96 68 56 45 43
51 58 63 65 50 52 50 86 86 82 77 85 77 74 76 72 75 54 56 54 62 69 94 86 87 93 93 80 67 46 42 46
48 71 67 64 66 52 52 60 79 87 81 82 85 78 79 74 81 85 62 67 67 90 82 90 87 84 88 66 58 45 43 38
49 61 74 61 66 80 66 61 57 74 81 86 86 78 89 77 74 79 73 69 73 88 84 84 86 78 78 62 54 46 45 42
46 57 65 63 61 72 66 63 69 72 78 88 82 86 80 78 82 88 72 86 90 89 89 89 89 80 70 55 54 50 45 43
36 43 56 64 60 59 64 72 78 83 85 84 83 82 81 78 81 81 90 88 94 95 97 96 96 91 79 56 56 50 47 44
30 44 54 60 62 61 77 82 86 74 71 79 85 79 77 76 76 90 93 93 97 96 96 94 96 95 80 56 55 49 46 38
26 35 51 57 65 76 80 86 86 76 68 66 71 72 76 74 82 92 96 97 98 98 97 95 94 94 80 60 61 48 46 51
27 36 50 56 81 85 87 95 89 84 81 74 68 72 74 80 89 94 98 96 95 92 96 96 98 94 91 82 71 61 55 58
36 40 49 54 71 74 71 86 84 82 86 75 75 74 79 87 94 96 97 96 94 92 94 95 92 89 87 88 93 83 70 59
38 40 45 54 59 78 72 82 82 92 90 86 82 75 84 91 92 94 96 95 96 95 94 90 92 87 80 74 85 84 74 68
40 42 45 53 58 79 75 75 78 69 76 78 85 82 86 86 88 88 94 96 95 94 92 92 90 93 88 86 59 58 60 79
47 48 49 57 61 76 70 63 57 57 60 69 87 90 88 87 90 93 94 93 93 94 96 95 93 92 88 82 70 63 56 58
52 54 53 64 75 75 70 63 57 59 68 79 86 90 91 95 91 92 90 91 92 92 93 93 94 92 91 83 72 66 66 61
48 54 56 68 82 80 68 62 63 61 62 64 76 80 89 92 94 94 95 92 85 87 90 91 92 92 91 90 73 58 59 57
45 52 60 70 83 82 70 67 57 55 57 57 66 71 70 94 94 89 91 89 88 90 92 93 91 90 89 80 71 64 58 49

GFSFLT2_sfc_rhum_114.txt.gz
RH
84 85 87 94 93 94 96 97 96 93 95 94 94 94 92 89 89 90 85 85 90 90 92 92 92 92 91 92 90 91 85 80
80 82 84 87 90 95 96 97 97 96 95 94 96 96 94 91 90 86 85 84 88 90 93 92 92 95 94 93 91 90 86 80
72 73 76 79 80 86 97 96 97 97 95 97 99 91 86 83 85 84 86 88 90 94 96 93 95 95 94 94 95 78 82 86
58 66 69 72 58 81 84 84 87 89 87 89 87 87 81 72 77 89 87 82 89 95 93 95 95 95 99 94 94 87 92 93
48 66 71 67 62 70 71 75 80 81 82 83 84 81 84 82 89 88 92 87 82 92 97 90 92 93 98 96 92 90 96 95
41 56 69 72 58 63 65 68 76 77 78 83 85 84 88 87 85 85 87 88 82 79 87 83 85 88 93 95 91 97 97 99
41 52 65 69 74 65 68 73 74 74 77 80 80 83 87 86 87 86 80 78 75 89 86 90 82 89 85 92 92 95 95 96
44 46 63 63 69 75 69 77 78 80 78 78 82 82 84 87 89 84 88 89 88 89 92 89 89 93 92 91 92 90 93 97
48 53 62 66 69 69 72 70 76 76 82 84 81 82 84 82 88 91 89 89 85 92 92 93 93 92 92 95 93 92 91 89
42 41 61 69 69 67 63 68 73 74 77 80 82 83 82 86 87 88 92 91 92 95 96 96 97 96 96 98 92 91 93 92
32 53 68 74 74 69 70 74 75 70 73 75 79 82 83 80 81 85 90 93 95 95 96 96 97 97 96 97 96 92 92 73
34 50 60 72 74 74 70 72 70 70 69 69 77 75 84 87 82 87 90 91 96 96 97 96 96 97 95 97 97 94 90 76
30 36 59 65 68 74 72 72 71 70 70 75 79 79 86 84 83 89 89 94 97 95 98 98 99 98 99 99 99 96 90 80
36 35 37 49 57 61 66 67 74 72 77 75 73 78 81 78 88 92 93 95 96 97 96 99 98 97 97 95 99 99 96 87
35 35 37 43 43 57 70 85 86 86 84 75 74 76 77 81 87 96 95 94 96 97 94 95 97 98 98 96 100 98 93 89
38 42 41 40 50 52 80 84 86 81 83 78 76 80 80 80 83 95 95 95 96 96 95 93 91 96 99 98 94 94 92 95
43 46 47 47 49 57 79 80 75 76 80 85 83 79 80 77 84 95 95 96 95 95 96 94 91 91 92 97 97 94 93 90
46 46 42 49 54 60 74 81 77 77 81 83 84 86 84 84 87 92 96 96 96 94 94 93 93 91 92 92 91 90 92 89
44 43 43 46 59 61 70 78 79 76 73 76 78 86 90 89 90 95 96 96 93 92 94 94 93 94 94 95 92 93 86 85
50 47 46 47 53 63 68 78 78 74 72 69 78 80 84 86 89 91 93 94 94 93 95 95 93 93 92 94 97 96 92 85

GFSFLT2_sfc_rhum_117.txt.gz
RH
97 96 93 96 96 98 98 97 97 96 96 96 95 95 93 92 91 90 91 90 88 91 92 92 92 91 91 93 92 89 91 92
97 98 98 98 98 98 98 98 98 92 95 94 96 96 93 93 92 91 88 86 89 90 93 94 93 94 94 92 94 90 89 90
96 97 97 97 97 95 98 98 98 95 96 81 99 98 96 93 92 90 88 88 88 88 93 94 95 95 94 94 92 84 94 96
92 96 96 96 80 97 98 97 98 97 99 97 98 98 97 89 90 89 89 91 91 93 94 95 96 98 97 95 96 94 95 97
85 88 91 91 83 98 99 99 99 99 98 98 97 96 97 92 98 93 96 87 94 98 98 99 96 98 98 98 95 95 98 97
75 80 84 86 86 90 90 95 96 97 97 96 98 99 97 97 96 96 95 95 97 98 99 98 97 97 97 97 96 97 98 99
65 72 77 76 81 84 84 87 90 91 92 92 96 97 97 97 97 96 94 90 92 98 97 95 97 97 97 98 97 97 95 97
53 63 72 68 71 81 82 82 85 88 92 89 93 97 97 97 97 96 95 95 96 95 95 96 98 97 95 98 98 97 96 97
50 63 68 70 66 79 88 85 84 93 88 94 89 93 95 95 96 97 95 97 95 97 97 98 98 96 96 95 98 98 97 96
49 55 68 73 71 72 81 90 86 87 96 96 93 92 92 95 95 97 96 97 97 97 97 98 98 98 99 99 99 98 95 96
52 63 70 72 83 77 83 86 94 88 95 95 93 93 93 93 94 97 96 97 97 97 99 96 98 99 99 98 99 98 96 93
54 59 68 73 78 88 87 88 93 91 89 88 90 87 93 96 95 96 96 97 98 98 97 99 96 94 97 98 98 98 98 96
60 74 76 82 90 93 96 85 86 95 88 86 90 85 88 94 90 94 96 97 96 97 98 97 100 98 99 99 99 98 97 97
42 64 85 82 81 80 86 94 91 79 91 91 86 89 93 89 90 94 97 98 97 97 96 99 99 98 99 98 100 100 99 97
39 44 53 72 76 85 95 95 96 95 95 95 91 89 92 91 88 94 96 97 97 97 96 96 98 99 95 96 100 98 97 99
46 51 52 51 56 79 90 92 97 96 96 93 81 90 88 86 89 95 96 97 96 94 94 94 93 95 99 98 95 94 96 100
55 53 52 54 56 67 92 94 89 96 97 94 90 91 86 86 88 96 97 97 97 96 97 96 93 94 96 99 98 97 97 93
54 56 54 56 64 69 91 94 94 96 96 96 93 86 92 90 90 96 94 94 96 96 96 96 95 93 94 94 91 90 92 89
52 54 54 57 64 66 75 93 93 91 92 92 94 86 87 91 92 97 96 93 94 94 96 96 95 94 94 94 89 93 84 83
60 56 56 57 63 68 73 73 91 86 82 84 88 85 86 89 94 94 95 94 94 95 96 96 94 95 94 95 93 96 93 87

GFSFLT2_sfc_rhum_120.txt.gz
RH
98 97 97 98 98 98 96 95 97 97 97 96 95 94 93 92 91 91 90 89 90 92 92 92 92 91 92 97 95 89 93 91
98 99 98 98 98 98 98 98 98 98 97 97 96 95 94 93 92 92 92 90 91 91 94 94 94 94 95 97 94 91 94 91
98 98 99 99 99 98 99 98 98 98 98 98 98 98 96 95 94 93 90 89 92 91 94 95 95 95 96 97 94 90 97 98
97 98 98 98 91 98 98 96 95 96 97 86 99 99 98 94 94 93 90 90 90 90 94 95 96 98 99 95 98 96 98 97
97 97 97 97 92 99 98 95 93 92 99 97 99 99 99 98 99 96 97 94 95 96 98 99 97 98 98 98 97 97 99 99
95 96 97 97 98 98 99 98 98 97 98 98 99 100 100 99 99 98 98 98 98 98 99 98 97 96 95 97 97 98 99 98
92 93 93 93 97 95 97 98 98 98 99 98 98 99 99 98 98 98 98 98 98 99 98 98 98 97 97 97 98 97 97 97
82 88 87 85 90 93 92 92 96 97 96 97 97 97 98 98 98 98 98 96 98 98 98 98 98 98 98 98 98 98 97 97
75 81 84 83 83 90 90 90 93 95 94 95 95 97 96 96 97 98 97 97 97 98 98 98 99 99 98 99 99 97 97 96
61 67 80 80 77 84 85 88 91 92 92 93 92 93 95 97 96 97 97 98 97 98 98 98 98 98 99 99 98 97 98 98
58 65 77 78 73 79 86 92 88 88 91 92 94 93 94 96 96 98 96 98 98 98 98 96 98 99 98 99 99 98 98 97
55 61 71 74 73 74 91 97 95 91 93 91 95 92 94 96 97 96 96 97 98 98 97 99 96 96 97 98 99 98 98 99
60 62 68 75 84 86 91 91 98 98 94 92 91 94 94 95 97 94 94 95 96 97 97 98 99 96 99 100 99 98 98 97
70 65 73 73 80 81 94 96 95 90 96 95 90 92 94 94 95 96 95 97 98 98 96 99 99 98 99 98 100 99 99 97
88 91 85 83 85 96 98 97 97 96 97 96 96 93 92 88 94 94 98 96 97 96 96 95 98 99 96 95 100 98 99 99
57 68 73 70 89 93 93 93 89 96 93 94 96 93 94 92 94 95 95 97 97 97 95 94 94 97 99 97 93 93 98 100
58 56 60 66 71 75 92 92 95 97 97 94 94 94 89 90 91 92 95 97 96 96 97 96 93 94 95 99 98 98 96 97
59 58 59 63 69 77 88 94 96 98 97 97 96 97 95 93 92 94 92 94 96 95 94 94 95 94 94 97 93 92 95 96
57 59 62 62 66 75 86 87 86 96 96 96 95 96 98 98 96 97 96 95 94 93 97 97 96 96 95 94 93 90 90 84
66 65 65 63 66 72 73 77 84 84 95 95 94 92 87 92 96 96 95 96 95 95 96 96 96 96 95 95 95 92 90 85